Home > Weather > Oberpullendorf > Past weeks

Flag for Austria Weather for the Past 2 Weeks in Oberpullendorf, Burgenland, Austria

Now
39 °F

Overcast.


Feels Like: 35 °F
Forecast: 42 / 54 °F
Wind: 6 mph from East

Location: Eisenstadt

Current Time: Feb 7, 2016 at 7:07:25 AM

Latest Report: Feb 7, 2016 at 6:00 AM


Visibility: 6 mi

Pressure: 29.89 "Hg

Humidity: 80%

Dew point: 34 °F

Location of OberpullendorfLocation

Historic Weather in Oberpullendorf — Graph

°F

Oberpullendorf Temperature Yesterday

Maximum temperature yesterday: 49 °F (at 2:00 PM)
Minimum temperature yesterday: 32 °F (at 8:00 AM)
Average temperature yesterday: 41 °F

High & Low Weather Summary for the Past Weeks

 TemperatureHumidityPressure
High60 °F (Feb 1, 1:00 PM)100% (Jan 30, 8:00 PM)30.55 "Hg (Jan 30, 8:00 PM)
Low19 °F (Jan 23, 7:00 AM)46% (Jan 28, 5:00 PM)29.87 "Hg (Jan 31, 3:00 AM)
Average40 °F83%30.24 "Hg
* Reported Jan 23 6:00 AM — Feb 7 6:00 AM, Oberpullendorf, Weather by CustomWeather, © 2016

Note: Actual official high and low records may vary slightly from our data, if they occured in-between our weather recording intervals... More about our weather records

Advertising

Oberpullendorf Weather History for the Previous 24 Hours

 ConditionsComfort  
Time TempWeatherWind HumidityBarometerVisibility
6:00 AM
Sun, Feb 7
39 °FOvercast.6 mph80%29.89 "Hg6 mi
9:00 PM
Sat, Feb 6
40 °FQuite cool.6 mph81%30.11 "HgN/A
8:00 PM42 °FQuite cool.6 mph79%30.13 "HgN/A
7:00 PM43 °FPassing clouds.6 mph76%30.14 "Hg6 mi
6:00 PM45 °FQuite cool.5 mph71%30.15 "HgN/A
5:00 PM47 °FCool.6 mph63%30.15 "HgN/A
4:00 PM48 °FScattered clouds.6 mph62%30.16 "Hg9 mi
3:00 PM49 °FCool.7 mph61%30.18 "HgN/A
2:00 PM49 °FCool.7 mph60%30.19 "HgN/A
1:00 PM48 °FFog.7 mph59%30.21 "Hg3 mi
12:00 PM43 °FQuite cool.5 mph71%30.25 "HgN/A
11:00 AM40 °FChilly.5 mph76%30.28 "HgN/A
10:00 AM39 °FFog.3 mph74%30.29 "Hg2 mi
9:00 AM36 °FChilly.2 mph80%30.30 "HgN/A
8:00 AM32 °FChilly.No wind92%30.31 "HgN/A
7:00 AM32 °FClear.1 mph92%30.30 "Hg6 mi
Weather by CustomWeather, © 2016

See weather overviewHow to use our weather pages